Arar current weather conditions

sailwx.info

Wind from 350 at 6 knots

Air temperature 27.0° C
Dewpoint 4.0° C

Last reported at 2015-Jul-05 03:00 UTC.
Time now 2015-Jul-05 06:04 UTC

Location: N 30°54' E 041°08'.
View on Google Maps.

See reports from other nearby stations

  
Tides and Currents Weather Stations Pressure Air Temp Water Temp Dewpoint Dewpoint Depression Visibility Wind Speed Wind Dir Waves Ship Positions
date/time (UTC)wind fromknots sea level pressurealtimeterstation pressurevisibilityair tempwater tempwave heightnotes
2015-Jul-05 03:00 350 6 27.0
2015-Jul-05 02:00 310 7 27.0
2015-Jul-05 01:00 320 8 28.0
2015-Jul-05 00:00 320 9 29.0
2015-Jul-04 23:00 320 9 29.0
2015-Jul-04 22:00 310 9 30.0
2015-Jul-04 21:00 310 11 32.0
2015-Jul-04 20:00 300 8 32.0
2015-Jul-04 19:00 280 7 33.0
2015-Jul-04 18:00 280 7 35.0
2015-Jul-04 17:00 280 8 37.0
2015-Jul-04 16:00 280 9 40.0
2015-Jul-04 15:00 280 10 41.0
2015-Jul-04 14:00 270 16 42.0
2015-Jul-04 13:00 280 14 43.0
2015-Jul-04 12:00 240 9 43.0
2015-Jul-04 11:00 330 9 42.0
2015-Jul-04 10:00 310 6 42.0
2015-Jul-04 09:00 310 5 41.0
2015-Jul-04 08:00 320 6 39.0
2015-Jul-04 07:00 340 8 37.0
2015-Jul-04 06:00 340 7 35.0
2015-Jul-04 05:00 340 6 32.0
2015-Jul-04 04:00 340 6 30.0
2015-Jul-04 03:00 050 3 27.0
2015-Jul-04 02:00 330 8 28.0
2015-Jul-04 01:00 330 9 29.0
2015-Jul-04 00:00 320 11 30.0
2015-Jul-03 23:00 310 14 31.0
2015-Jul-03 22:00 320 16 32.0
2015-Jul-03 21:00 300 11 33.0
2015-Jul-03 20:00 280 14 35.0
2015-Jul-03 19:00 280 11 36.0
2015-Jul-03 18:00 280 10 37.0
2015-Jul-03 17:00 260 12 39.0
2015-Jul-03 16:00 250 8 41.0
2015-Jul-03 15:00 250 12 43.0
2015-Jul-03 14:00 44.0
2015-Jul-03 13:00 180 7 44.0
2015-Jul-03 12:00 190 7 44.0
2015-Jul-03 11:00 150 5 44.0
2015-Jul-03 10:00 150 6 43.0
2015-Jul-03 09:00 42.0
2015-Jul-03 08:00 040 3 41.0
2015-Jul-03 07:00 320 3 39.0
2015-Jul-03 06:00 270 6 36.0